Weather History for Seretse Khama, Botswana

Change the Weather History Date:

Saturday, May 3, 2014

  Actual Average Record
Temperature  
Mean Temperature 66 °F -  
Max Temperature 82 °F 74 °F 87 °F (1999)
Min Temperature 51 °F 44 °F 44 °F (2013)
Cooling Degree Days 2    
Growing Degree Days 16 (Base 50)    
Moisture  
Dew Point 47 °F    
Average Humidity 53    
Maximum Humidity 82    
Minimum Humidity 26    
Precipitation  
Precipitation 0.00 in - - ()
Sea Level Pressure  
Sea Level Pressure 30.23 in    
Wind  
Wind Speed 4 mph ()    
Max Wind Speed 9 mph    
Max Gust Speed -    
Visibility 6.2 miles    
Events      
Averages and records for this station are not official NWS values.
T = Trace of Precipitation, MM = Missing Value Source: Averaged Metar Reports

Daily Weather History Graph

Daily Weather History Graph

Search for Another Location

Airport:

Trip Planner

Search our weather history database for the weather conditions in past years. The results will help you decide how hot, cold, wet, or windy it might be!

Date:

Astronomy

May. 03, 2014 Rise Set
Actual Time 6:38 AM CAT 5:47 PM CAT
Civil Twilight 6:15 AM CAT 6:10 PM CAT
Nautical Twilight 5:48 AM CAT 6:38 PM CAT
Astronomical Twilight 5:21 AM CAT 7:04 PM CAT
Moon 10:12 AM CAT (5/3) 9:22 PM CAT (5/3)
Length of Visible Light 11h 55m
Length of Day
11h 08m
Waxing Crescent, 17% of the Moon is Illuminated
May 3
Waxing Crescent
May 7
First Quarter
May 14
Full
May 21
Last Quarter
May 28
New

Hourly Weather History & Observations

Time (CAT) Temp. Dew Point Humidity Pressure Visibility Wind Dir Wind Speed Gust Speed Precip Events Conditions
12:00 AM 59.0 °F 46.4 °F 63% 30.24 in - South 3.5 mph - N/A   Clear
1:00 AM 60.8 °F 48.2 °F 63% 30.21 in - SSE 6.9 mph - N/A   Clear
2:00 AM 60.8 °F 48.2 °F 63% 30.21 in - SSE 3.5 mph - N/A   Clear
4:00 AM 53.6 °F 46.4 °F 77% 30.24 in - Variable 1.2 mph - N/A   Clear
5:00 AM 53.6 °F 46.4 °F 77% 30.24 in - ESE 2.3 mph - N/A   Clear
6:00 AM 51.8 °F 46.4 °F 82% 30.24 in - ESE 2.3 mph - N/A   Clear
7:00 AM 51.8 °F 46.4 °F 82% 30.27 in - Variable 2.3 mph - N/A   Clear
8:00 AM 59.0 °F 50.0 °F 72% 30.27 in - Variable 2.3 mph - N/A   Clear
9:00 AM 64.4 °F 50.0 °F 59% 30.30 in - ENE 5.8 mph - N/A   Clear
10:00 AM 69.8 °F 50.0 °F 49% 30.30 in - East 4.6 mph - N/A   Clear
11:00 AM 73.4 °F 48.2 °F 41% 30.27 in - NE 5.8 mph - N/A   Clear
12:00 PM 77.0 °F 48.2 °F 36% 30.27 in - East 5.8 mph - N/A   Clear
1:00 PM 78.8 °F 48.2 °F 34% 30.24 in - NE 6.9 mph - N/A   Clear
2:00 PM 80.6 °F 46.4 °F 30% 30.21 in - NNE 9.2 mph - N/A   Clear
3:00 PM 82.4 °F 44.6 °F 26% 30.18 in 6.2 mi NNE 8.1 mph - N/A   Partly Cloudy
4:00 PM 82.4 °F 44.6 °F 26% 30.18 in 6.2 mi NNE 8.1 mph - N/A   Partly Cloudy
5:00 PM 80.6 °F 46.4 °F 30% 30.18 in - NNE 8.1 mph - N/A   Clear
6:00 PM 75.2 °F 48.2 °F 38% 30.18 in - North 3.5 mph - N/A   Clear
7:00 PM 69.8 °F 48.2 °F 46% 30.18 in - NNE 4.6 mph - N/A   Clear
8:00 PM 66.2 °F 48.2 °F 52% 30.21 in - NNE 2.3 mph - N/A   Clear
9:00 PM 62.6 °F 46.4 °F 55% 30.21 in - Variable 1.2 mph - N/A   Clear
10:00 PM 60.8 °F 46.4 °F 59% 30.21 in - WSW 2.3 mph - N/A   Clear
11:00 PM 59.0 °F 46.4 °F 63% 30.21 in - SSE 3.5 mph - N/A   Clear